Location: Newark
(48.1500°N, 13.1167°E)
Time: 07:31:10
(UTC+00:00)

KAITUO 1B - Pass Details

Date: 03 December 2021
Orbit: 486 x 507 km, 97.4° (Epoch: 18 January)

Event Time Altitude Azimuth Distance (km) Brightness Sun altitude
Rises 15:48:07 0° 134° (SE) 2,600 ? -5.6°
Reaches altitude 10° 15:50:27 10° 121° (ESE) 1,724 ? -5.9°
Maximum altitude 15:53:28 24° 66° (ENE) 1,098 ? -6.4°
Drops below altitude 10° 15:56:31 10° 12° (NNE) 1,742 ? -6.8°
Sets 15:58:53 0° 359° (N) 2,635 ? -7.2°
